Watauga Observed Data For Previous 48 Hours

Caption
Day and Hour Reservoir Elevation (behind dam)* Tailwater Elevation (below dam)* Average Hourly Discharge*
4/22/2018 2 AM EDT 1,959.73 1,650.71 2,732
4/22/2018 3 AM EDT 1,959.69 1,650.69 2,728
4/22/2018 4 AM EDT 1,959.66 1,650.70 2,726
4/22/2018 5 AM EDT 1,959.64 1,650.76 2,727
4/22/2018 6 AM EDT 1,959.61 1,650.70 2,733
4/22/2018 7 AM EDT 1,959.58 1,650.71 2,726
4/22/2018 8 AM EDT 1,959.55 1,650.74 2,825
4/22/2018 9 AM EDT 1,959.52 1,650.74 2,822
4/22/2018 10 AM EDT 1,959.49 1,650.75 2,826
4/22/2018 11 AM EDT 1,959.46 1,650.77 2,824
4/22/2018 12 PM EDT 1,959.44 1,650.80 2,825
4/22/2018 1 PM EDT 1,959.43 1,650.71 2,824
4/22/2018 2 PM EDT 1,959.41 1,650.35 2,626
4/22/2018 3 PM EDT 1,959.40 1,650.76 2,652
4/22/2018 4 PM EDT 1,959.38 1,650.70 2,685
4/22/2018 5 PM EDT 1,959.35 1,650.65 2,714
4/22/2018 6 PM EDT 1,959.34 1,650.73 2,711
4/22/2018 7 PM EDT 1,959.31 1,650.57 2,763
4/22/2018 8 PM EDT 1,959.28 1,650.57 2,785
4/22/2018 9 PM EDT 1,959.27 1,650.65 2,783
4/22/2018 10 PM EDT 1,959.25 1,650.63 2,791
4/22/2018 11 PM EDT 1,959.22 1,650.58 2,784
4/23/2018 12 AM EDT 1,959.19 1,650.71 2,791
4/23/2018 1 AM EDT 1,959.17 1,650.45 2,775
4/23/2018 2 AM EDT 1,959.14 1,650.71 2,658
4/23/2018 3 AM EDT 1,959.11 1,650.56 2,684
4/23/2018 4 AM EDT 1,959.10 1,650.37 2,650
4/23/2018 5 AM EDT 1,959.07 1,650.37 2,635
4/23/2018 6 AM EDT 1,959.05 1,650.40 2,643
4/23/2018 7 AM EDT 1,959.03 1,650.54 2,737
4/23/2018 8 AM EDT 1,959.03 1,650.54 2,757
4/23/2018 9 AM EDT 1,959.03 1,650.54 2,758
4/23/2018 10 AM EDT 1,958.98 1,650.56 2,754
4/23/2018 11 AM EDT 1,958.95 1,650.56 2,754
4/23/2018 12 PM EDT 1,958.92 1,650.57 2,760
4/23/2018 1 PM EDT 1,958.86 1,650.56 2,751
4/23/2018 2 PM EDT 1,958.85 1,650.59 2,767
4/23/2018 3 PM EDT 1,958.82 1,650.57 2,765
4/23/2018 4 PM EDT 1,958.80 1,650.56 2,759
4/23/2018 5 PM EDT 1,958.77 1,650.56 2,756
4/23/2018 6 PM EDT 1,958.77 1,650.56 2,762
4/23/2018 7 PM EDT 1,958.76 1,650.55 2,762
4/23/2018 8 PM EDT 1,958.76 1,650.59 2,762
4/23/2018 9 PM EDT 1,958.71 1,650.57 2,768
4/23/2018 10 PM EDT 1,958.74 1,650.57 2,761
4/23/2018 11 PM EDT 1,958.71 1,650.59 2,768
4/24/2018 12 AM EDT 1,958.74 1,650.57 2,768
4/24/2018 1 AM EDT 1,958.68 1,650.59 2,767
4/24/2018 2 AM EDT 1,958.65 1,650.30 2,763
4/24/2018 3 AM EDT 1,958.68 1,650.27 2,524
4/24/2018 4 AM EDT 1,958.68 1,650.24 2,522
4/24/2018 5 AM EDT 1,958.66 1,650.25 2,527
4/24/2018 6 AM EDT 1,958.69 1,650.24 2,528
4/24/2018 7 AM EDT 1,958.69 1,650.22 2,521
4/24/2018 8 AM EDT 1,958.73 1,650.69 2,822
4/24/2018 9 AM EDT 1,958.76 1,650.27 2,761
4/24/2018 10 AM EDT 1,958.80 1,650.24 2,528
4/24/2018 11 AM EDT 1,958.85 1,650.22 2,527
4/24/2018 12 PM EDT 1,958.87 1,650.21 2,523
4/24/2018 1 PM EDT 1,958.92 1,650.22 2,525
4/24/2018 2 PM EDT 1,958.97 1,650.24 2,525
4/24/2018 3 PM EDT 1,959.01 1,650.21 2,526
4/24/2018 4 PM EDT 1,959.07 1,650.20 2,527
4/24/2018 5 PM EDT 1,959.10 1,649.84 1,656
4/24/2018 6 PM EDT 1,959.14 1,649.80 1,224
4/24/2018 7 PM EDT 1,959.19 1,649.65 1,192
4/24/2018 8 PM EDT 1,959.27 1,649.62 1,102
4/24/2018 9 PM EDT 1,959.33 1,649.82 1,187
4/24/2018 10 PM EDT 1,959.38 1,649.79 1,221

Elevations are in feet above sea level. Discharges are in cubic feet per second and are reported at the end of the hour.